Dewpoint
74 75 74 74 74 74 74 74 74 74 75 74 74 73 72 72 72 72 72 71 71 71 72 71 71 71 69 69 70 69 70 71 71 71 72 73 74 75 75 75 74 74 73 73 73 73 73 73 72 73 73 73 73 73 73 72 72 72 72 72 72 72 72 72 72 71 71 71 71 71 71 70 70 70 70 70 71 70 70 70 70 70 71 71 71
74 74 73 73 74 74 73 73 74 75 75 74 74 73 72 72 72 72 72 71 71 71 72 71 71 71 68 67 69 69 71 71 71 71 72 73 74 75 75 75 74 74 74 73 73 74 74 74 73 72 73 73 73 73 72 72 72 72 72 72 72 72 72 72 71 72 71 71 71 70 70 70 70 71 71 71 71 71 71 71 71 71 71 71 71
74 74 73 74 74 74 74 73 74 75 74 73 74 73 73 72 72 72 71 71 73 72 72 71 71 70 71 67 67 69 71 71 71 71 72 73 74 74 75 75 75 74 74 74 73 73 74 74 74 73 72 72 72 72 72 73 72 72 72 72 72 72 72 72 72 71 71 71 71 71 70 70 71 71 71 71 71 71 71 71 71 71 71 71 71
74 74 74 74 73 73 73 74 74 74 74 74 74 74 73 73 73 72 72 73 73 72 71 70 69 69 68 66 67 69 70 71 70 71 72 73 73 74 74 74 75 74 74 74 73 73 74 74 73 73 73 73 72 72 72 72 72 72 72 72 72 72 72 72 72 72 71 71 71 71 71 71 71 71 71 71 71 71 71 71 71 71 71 71 71
74 74 76 74 74 73 74 75 74 75 75 74 74 73 74 73 73 73 72 71 72 70 71 70 70 70 67 67 67 70 70 70 70 71 71 73 74 74 74 75 74 75 75 74 74 74 74 74 73 73 73 73 73 73 73 72 72 72 72 72 72 72 72 72 72 72 72 72 72 72 72 71 71 72 72 72 72 72 72 72 72 72 72 72 72
73 74 74 74 74 73 73 73 74 75 75 74 73 73 72 71 71 72 74 71 70 70 70 70 69 69 68 66 68 70 70 70 70 71 72 73 74 74 74 74 74 74 74 75 74 74 74 74 73 73 73 73 73 73 73 73 72 72 72 72 72 72 72 72 72 72 72 72 72 72 71 71 71 72 72 72 72 72 72 72 73 73 73 73 73
73 74 74 73 74 74 74 73 75 76 76 75 74 74 72 71 72 70 71 72 71 71 71 68 68 67 68 66 67 69 69 69 70 71 71 72 74 74 74 74 74 74 74 74 74 75 75 74 73 74 74 74 73 73 73 73 73 72 72 72 72 72 72 72 72 72 72 71 71 71 72 72 71 72 72 73 73 73 73 72 72 71 72 72 72
73 74 74 74 74 74 74 74 76 75 75 75 75 74 73 73 75 72 71 71 74 71 69 66 68 69 67 65 68 69 68 69 69 70 70 72 73 74 74 74 74 74 75 73 74 75 75 74 74 74 74 74 74 74 73 73 73 73 73 73 72 72 72 72 72 72 72 72 72 72 72 72 72 72 72 72 73 72 72 72 72 72 72 72 72
74 74 74 74 74 73 74 76 75 74 75 75 76 75 74 75 75 75 71 71 71 71 69 68 68 67 63 65 66 68 67 68 69 69 71 71 72 73 73 74 74 76 74 73 74 74 75 75 74 74 74 74 74 74 74 73 73 73 73 73 73 73 73 73 73 73 73 73 72 72 72 72 72 72 72 72 71 71 72 72 72 71 72 72 72
75 75 74 74 74 74 75 75 75 75 75 74 73 74 74 73 72 74 73 72 71 70 67 67 67 66 63 64 65 66 66 67 68 72 70 70 71 71 72 73 74 74 74 74 74 74 73 74 75 74 74 74 75 74 74 74 74 74 73 73 73 72 73 73 73 73 73 73 73 72 72 72 72 72 72 71 70 71 71 72 72 72 72 72 72
75 75 74 75 75 75 74 75 75 74 75 74 74 74 74 73 72 71 73 72 71 69 67 67 67 64 64 64 64 65 65 67 70 69 68 69 70 71 71 72 73 73 73 73 74 74 73 73 73 73 73 74 74 74 74 74 74 73 73 73 72 73 72 72 73 73 73 73 73 73 72 73 72 72 72 72 72 72 72 72 72 72 72 72 72
75 75 74 75 74 74 73 75 74 75 75 74 73 73 74 73 72 71 70 72 73 72 69 67 66 65 65 64 65 66 67 70 68 67 68 68 70 71 71 72 72 72 72 73 73 74 73 73 75 73 73 74 75 74 74 74 73 73 74 73 72 72 72 73 73 72 72 72 72 72 72 72 72 72 72 72 72 72 72 72 72 72 72 72 72
75 74 74 76 74 73 74 74 74 75 75 73 73 73 73 74 73 74 71 70 70 70 67 64 62 61 62 63 64 66 70 67 66 67 67 67 70 70 70 71 71 71 71 72 72 73 73 73 73 73 73 72 74 74 74 73 73 73 73 73 73 73 72 73 72 72 72 72 72 72 72 72 72 72 72 72 72 72 71 71 72 72 72 72 72
75 74 74 75 73 73 73 73 74 75 74 74 73 76 75 74 73 72 73 69 68 70 67 62 61 59 58 59 61 63 67 65 64 65 67 67 69 68 69 69 70 70 71 71 71 72 73 73 73 73 73 73 72 72 73 73 74 74 72 72 72 73 72 73 73 72 72 72 71 72 72 72 72 72 72 71 71 72 72 71 72 72 72 72 71
74 75 73 75 73 73 72 73 74 75 75 74 74 74 73 73 73 71 70 70 71 72 67 61 61 63 63 60 57 58 62 62 64 65 64 65 67 66 67 67 68 69 70 71 71 72 72 73 73 73 73 73 72 72 72 74 73 73 74 73 73 73 72 72 72 72 72 73 73 72 72 72 72 71 71 71 71 72 72 72 72 71 70 70 70
73 74 74 75 74 73 73 74 74 75 75 74 73 73 73 73 72 72 70 67 67 67 68 65 66 60 56 58 58 58 55 57 60 63 65 64 65 64 65 65 67 68 70 70 71 71 72 72 72 73 73 73 73 72 73 71 74 74 73 72 73 73 72 72 71 72 72 72 72 72 72 72 72 72 72 71 72 71 71 71 70 69 68 68 68
73 74 74 74 75 74 74 74 75 75 75 74 73 73 73 73 74 72 70 68 67 67 68 66 64 62 62 60 58 56 56 58 63 61 65 62 62 62 66 64 65 67 69 69 70 71 71 72 72 72 73 72 72 72 72 73 73 74 73 73 73 73 72 72 71 71 72 72 72 72 72 72 72 72 71 71 71 71 70 69 69 68 68 67 67
74 73 74 74 75 74 74 75 75 75 75 74 74 74 73 73 74 73 71 70 68 67 62 70 67 70 64 62 61 57 60 60 59 57 62 65 62 63 65 63 65 67 67 68 68 69 71 71 72 72 72 72 72 72 72 72 73 72 71 72 73 73 73 73 71 71 71 71 71 72 72 72 71 71 71 70 69 68 69 69 68 68 67 67 67
74 73 74 74 75 75 74 75 75 75 76 75 74 74 74 74 75 73 71 71 69 66 62 65 62 64 68 68 69 70 63 59 58 59 58 60 62 62 61 62 63 63 65 66 67 68 69 70 71 72 72 72 72 72 71 72 74 73 74 74 73 73 73 73 72 70 70 71 72 72 72 71 71 71 70 68 67 68 67 68 67 67 67 67 67
73 74 74 74 75 75 75 75 75 76 76 75 75 75 75 74 74 74 73 71 70 68 64 63 59 59 65 65 69 68 66 66 62 59 59 58 58 60 62 61 61 62 64 65 66 66 66 68 70 71 71 71 71 71 71 72 72 72 73 73 73 72 72 72 72 70 70 70 70 70 71 70 70 68 65 66 67 67 67 67 67 68 68 67 67
73 73 73 74 75 75 75 75 75 76 76 76 75 75 75 74 73 73 72 72 70 69 67 64 60 58 61 63 64 65 64 65 64 64 62 58 58 59 58 61 61 62 63 64 65 65 66 66 68 70 71 71 70 70 71 71 71 71 73 73 73 72 72 72 72 68 67 68 68 69 68 68 67 65 64 64 66 68 68 68 68 68 69 69 69
73 73 73 73 75 76 76 75 75 76 76 75 75 75 75 74 73 73 72 71 71 70 69 67 63 62 61 62 61 64 61 61 61 62 63 60 58 58 59 58 58 60 63 62 63 64 65 66 68 69 69 69 69 69 69 69 70 70 72 74 73 72 72 71 72 68 67 66 66 66 66 65 65 65 67 68 69 70 70 69 68 68 68 68 69
72 73 73 73 74 76 76 76 75 76 76 76 75 75 75 74 74 73 72 71 71 71 71 70 66 65 63 62 61 63 60 60 60 61 61 60 59 59 59 61 58 58 61 62 63 63 65 65 66 67 67 67 68 67 67 68 70 70 73 74 73 73 73 72 70 69 69 69 67 67 67 68 68 68 69 69 69 68 68 68 68 68 68 68 68
72 72 73 73 74 75 76 76 76 75 76 76 75 75 75 74 74 73 72 71 71 71 71 70 67 67 64 63 61 64 63 62 62 61 61 61 59 59 59 60 60 60 64 63 64 62 64 64 65 65 65 65 66 66 66 66 67 70 73 73 72 72 73 72 71 71 70 70 70 69 68 68 68 68 68 68 68 68 68 68 69 69 69 69 68
72 72 72 73 74 75 75 75 75 75 75 76 75 75 75 74 74 73 72 71 71 70 70 70 69 66 65 65 62 65 65 65 65 62 62 62 60 59 61 63 59 60 61 62 61 62 63 63 64 64 64 65 66 65 64 64 64 68 72 73 72 72 72 71 70 70 70 70 69 69 70 70 70 70 70 70 71 71 70 69 68 68 68 69 70
71 72 72 73 73 74 75 75 75 76 75 75 75 75 75 74 74 73 72 71 71 71 70 70 69 68 66 66 64 63 64 66 66 64 64 63 62 59 60 64 60 59 61 61 62 61 61 62 63 64 64 64 65 65 64 63 62 68 70 66 70 70 70 70 69 68 67 68 69 69 69 70 71 70 70 70 70 69 70 70 70 70 71 70 70
71 72 73 73 73 74 75 75 75 75 75 75 75 75 75 74 74 73 72 72 72 72 71 70 70 68 66 66 65 64 63 65 65 64 64 64 63 62 62 59 59 59 59 61 62 60 59 61 62 63 64 65 65 65 64 64 65 68 71 65 65 68 68 68 67 66 66 66 68 68 68 68 69 70 70 70 71 71 71 71 71 70 70 70 70
72 72 73 73 73 73 74 75 75 75 75 75 75 74 74 74 74 73 72 72 72 72 71 70 70 70 67 66 65 63 64 64 65 64 64 64 63 63 62 60 58 56 59 59 60 60 61 59 61 62 63 64 65 65 67 67 65 70 72 64 62 65 68 67 67 66 66 65 66 68 68 68 69 70 71 71 71 72 71 71 71 71 71 70 70
72 73 73 73 72 72 73 74 74 75 75 75 75 74 74 74 73 73 73 72 72 72 72 71 70 70 69 66 66 65 65 65 65 65 64 64 64 63 62 61 60 58 57 58 58 59 59 60 59 61 63 64 64 66 66 66 67 68 70 66 61 62 66 67 67 67 67 67 66 67 68 68 69 70 71 72 71 71 71 71 70 70 70 70 70
72 73 73 72 72 74 73 73 74 74 75 75 75 75 74 74 74 73 73 73 72 72 72 71 71 70 70 67 66 65 65 65 66 66 64 63 63 63 63 62 61 59 59 58 58 59 59 62 60 59 63 63 65 66 65 65 68 68 69 67 62 61 65 66 66 66 67 67 66 66 67 68 68 69 70 71 71 71 71 70 70 70 70 69 69
73 73 73 73 72 72 73 73 73 74 74 74 74 75 74 74 74 73 73 73 72 72 72 72 71 71 70 69 67 66 66 66 66 66 67 64 64 63 63 63 63 60 60 59 56 59 61 59 61 61 63 63 64 65 65 65 66 68 67 67 65 66 66 65 66 66 66 66 66 66 66 67 67 68 68 69 69 70 70 70 70 69 69 68 68
73 73 73 73 72 72 72 73 73 73 73 74 74 74 74 74 74 74 73 72 72 72 71 72 72 71 70 69 68 67 66 66 66 66 66 66 65 65 64 64 63 62 62 60 58 57 63 61 62 63 63 63 65 65 64 65 66 69 68 67 66 68 67 66 67 66 66 66 66 66 66 66 66 67 67 68 68 69 69 69 69 68 68 68 69
72 73 73 73 73 72 72 73 73 73 73 73 74 74 74 74 74 74 73 73 72 72 72 72 72 71 71 70 69 68 67 66 66 66 66 66 66 66 65 65 63 63 63 61 60 60 62 64 63 63 64 65 64 65 64 64 65 68 70 67 66 65 65 66 67 68 67 66 66 66 66 66 66 66 67 67 68 68 69 68 68 68 68 68 68
71 72 72 73 73 72 72 72 72 73 73 73 73 73 73 73 73 74 73 73 72 72 72 71 72 72 71 70 70 69 68 67 66 65 65 66 66 65 65 65 64 64 63 62 61 61 60 62 63 64 64 65 62 64 63 63 64 67 68 66 66 66 66 66 66 67 67 67 66 66 66 66 66 66 66 66 67 68 67 67 67 67 68 68 67
72 72 72 72 72 72 72 72 72 72 73 73 73 73 73 73 73 73 73 73 73 72 72 72 72 72 71 71 70 70 69 67 67 66 66 65 66 65 64 65 64 64 64 63 62 61 61 61 63 63 63 64 62 62 64 64 65 65 66 65 65 67 67 66 66 66 67 67 66 65 65 65 65 65 65 65 66 66 66 66 66 66 66 66 65
72 72 72 73 72 72 72 72 72 72 72 72 72 73 73 73 73 73 73 73 73 73 72 72 72 72 71 71 70 70 69 68 67 66 66 65 66 66 64 65 65 64 65 64 62 61 62 61 63 62 63 63 63 63 65 65 64 64 64 64 64 66 66 66 66 65 66 66 66 65 65 65 64 64 64 64 64 64 64 64 65 64 64 64 63
72 73 73 73 73 73 72 72 72 72 72 72 72 72 73 73 73 73 73 73 73 73 73 72 73 72 71 71 71 70 69 69 68 67 66 66 65 66 65 64 65 65 65 66 64 63 62 61 62 63 63 63 63 63 64 64 64 64 64 63 62 64 65 65 66 65 66 65 65 65 64 63 63 63 63 63 63 63 63 63 63 63 62 62 61
70 72 72 72 72 73 73 72 72 72 72 72 72 72 72 73 73 73 73 73 73 73 73 73 72 72 72 71 71 70 70 69 68 68 67 66 65 65 65 65 65 65 65 66 65 64 62 62 62 62 63 63 63 63 63 64 63 63 63 64 63 63 63 64 65 65 65 64 65 64 64 64 63 63 63 63 62 62 62 62 62 62 60 59 58
69 69 71 72 72 72 72 73 72 72 72 72 72 73 73 73 73 73 73 73 72 72 73 73 73 72 72 72 71 71 70 69 69 68 67 67 66 65 65 65 65 65 64 65 66 65 64 62 62 62 63 64 63 62 63 64 64 63 62 63 63 64 63 62 63 65 65 65 65 65 65 65 64 63 61 61 62 62 61 61 61 60 59 58 57
69 69 69 71 72 72 71 72 72 72 72 72 72 73 73 73 73 73 73 73 72 72 72 72 72 72 72 72 72 71 70 70 69 69 68 67 67 66 65 65 65 65 64 64 65 65 64 63 63 62 63 63 63 63 63 63 63 63 63 62 61 62 63 63 62 63 64 65 65 65 65 65 64 63 62 62 62 62 61 61 61 61 60 58 57
70 69 69 70 71 72 72 71 71 72 72 72 72 72 73 73 73 73 73 73 73 72 72 72 72 72 72 72 72 72 71 69 67 67 67 66 68 67 66 66 65 65 64 64 64 64 64 64 63 63 63 63 63 63 62 62 61 61 62 63 62 62 63 64 64 64 64 64 65 65 64 64 64 63 63 62 62 62 62 62 62 63 61 58 58
70 70 69 70 70 71 71 71 71 71 72 73 70 65 67 72 73 73 73 73 73 73 72 72 72 72 72 72 72 69 67 66 65 65 65 64 65 67 67 66 66 65 65 64 64 64 64 64 63 63 63 63 63 63 62 62 62 61 61 62 62 62 62 63 64 65 66 65 64 64 64 65 63 63 63 62 63 65 63 62 61 61 61 59 59
70 70 70 69 70 70 71 71 71 71 71 71 66 64 64 65 71 73 72 72 73 73 72 72 72 72 72 72 72 71 68 67 68 64 64 64 63 64 65 65 64 66 65 64 64 64 64 64 64 63 63 62 63 63 63 62 62 62 61 62 61 62 62 61 61 63 67 66 65 64 64 65 64 63 63 63 63 64 65 63 62 61 60 60 60
70 70 70 69 70 70 71 71 71 71 71 66 64 63 63 63 65 72 72 72 72 72 72 72 72 72 72 72 72 72 72 72 71 70 66 63 62 62 63 63 63 63 64 65 64 64 64 63 63 63 63 62 63 63 63 63 63 63 62 62 62 61 61 61 61 61 64 67 65 64 64 65 65 64 63 63 62 62 64 63 62 60 60 60 60
69 70 70 70 69 70 70 71 71 71 71 66 63 62 63 63 63 66 72 72 72 72 72 72 72 72 72 72 72 72 72 68 70 71 71 69 63 61 62 62 63 62 62 63 63 65 64 64 63 63 63 63 63 63 64 64 64 63 63 62 62 62 62 62 62 62 64 68 65 64 63 64 65 65 63 63 61 61 60 62 62 61 60 60 60
69 69 70 70 70 70 70 70 71 71 71 66 62 61 61 62 62 64 71 72 72 72 72 72 72 72 72 72 72 72 72 72 72 71 71 71 70 68 66 65 65 65 61 61 61 62 65 64 64 63 64 64 63 63 64 64 64 63 63 62 62 62 62 62 62 63 63 69 65 65 63 64 65 64 63 62 62 61 61 60 61 61 60 60 59
69 69 69 69 70 70 70 70 70 70 70 65 62 60 60 60 61 62 70 72 72 72 72 72 72 72 72 72 72 72 72 72 72 71 71 71 70 70 69 67 66 66 66 65 64 64 64 64 64 64 64 64 64 64 64 65 64 64 63 63 63 62 63 63 63 63 64 68 67 65 63 64 64 63 63 62 61 60 60 60 60 60 60 59 59
69 69 70 70 70 70 70 70 70 70 70 63 61 60 59 59 60 66 70 71 71 72 72 72 72 72 72 72 72 72 72 72 68 64 67 71 71 70 70 69 68 67 67 64 63 63 64 65 64 64 64 64 63 65 65 64 64 65 65 65 64 63 63 62 62 63 64 66 67 65 63 62 63 63 62 61 60 59 59 59 58 59 60 59 59
69 69 69 70 70 71 71 71 70 70 70 65 60 59 58 59 60 68 70 70 71 71 72 72 72 72 72 72 72 72 72 72 68 64 63 64 70 70 70 70 69 68 68 68 64 61 61 60 60 61 61 61 61 60 61 61 63 64 64 63 63 63 63 62 62 63 63 64 67 65 63 62 61 62 61 59 58 57 57 57 57 59 59 59 58
68 68 69 69 70 70 71 71 71 70 70 67 59 57 58 58 61 69 70 70 71 71 71 72 72 72 72 69 72 72 72 72 66 63 62 64 69 70 70 70 69 69 69 69 68 67 61 60 60 61 61 61 61 60 60 60 61 62 64 62 62 63 62 62 61 62 63 64 65 66 63 62 60 61 60 56 57 54 56 56 56 58 59 57 57
69 69 69 69 69 69 70 71 69 70 71 68 58 57 57 57 62 69 70 71 71 71 71 71 72 72 72 70 68 68 70 69 64 62 61 63 69 70 70 70 69 69 69 69 68 68 67 65 64 64 64 62 64 63 64 60 61 66 64 63 63 63 62 62 62 62 62 63 64 65 62 61 58 59 59 52 51 52 55 56 57 56 57 58 56